TimeEST,TemperatureF,Dew PointF,Humidity,Sea Level PressureIn,VisibilityMPH,Wind Direction,Wind SpeedMPH,Gust SpeedMPH,PrecipitationIn,Events,Conditions,WindDirDegrees,DateUTC
12:03 AM,28.4,21.2,74,29.62,10.0,North,3.5,-,N/A,,Overcast,350,2013-03-03 05:03:00
1:52 AM,27.0,21.0,78,29.66,10.0,Calm,Calm,-,N/A,,Overcast,0,2013-03-03 06:52:00
2:52 AM,27.0,21.0,78,29.64,10.0,Calm,Calm,-,N/A,,Overcast,0,2013-03-03 07:52:00
3:52 AM,27.0,19.9,75,29.64,10.0,Calm,Calm,-,N/A,,Overcast,0,2013-03-03 08:52:00
4:48 AM,26.6,21.2,80,29.59,5.0,North,3.5,-,0.00,Snow,Light Snow,10,2013-03-03 09:48:00
4:52 AM,26.1,21.0,81,29.65,5.0,Calm,Calm,-,0.00,Snow,Light Snow,0,2013-03-03 09:52:00
5:52 AM,26.1,21.0,81,29.65,7.0,Calm,Calm,-,0.00,Snow,Light Snow,0,2013-03-03 10:52:00
6:52 AM,25.0,19.9,81,29.66,7.0,Calm,Calm,-,0.00,Snow,Light Snow,0,2013-03-03 11:52:00
7:45 AM,26.6,19.4,74,29.61,2.5,Calm,Calm,-,0.00,Snow,Light Snow,0,2013-03-03 12:45:00
7:52 AM,26.1,21.0,81,29.66,1.5,Calm,Calm,-,0.00,Snow,Light Snow,0,2013-03-03 12:52:00
7:59 AM,24.8,21.2,86,29.61,2.0,Calm,Calm,-,0.00,Snow,Light Snow,0,2013-03-03 12:59:00
8:10 AM,26.6,21.2,80,29.61,5.0,Calm,Calm,-,0.00,Snow,Light Snow,0,2013-03-03 13:10:00
8:39 AM,26.6,21.2,80,29.61,1.8,Variable,4.6,-,0.00,Snow,Light Snow,0,2013-03-03 13:39:00
8:43 AM,26.6,21.2,80,29.61,1.2,Variable,3.5,-,0.00,Snow,Light Snow,0,2013-03-03 13:43:00
8:52 AM,26.1,21.9,84,29.66,1.2,NNW,3.5,-,0.00,Snow,Light Snow,340,2013-03-03 13:52:00
9:17 AM,26.6,23.0,86,29.60,1.8,Calm,Calm,-,0.00,Snow,Light Snow,0,2013-03-03 14:17:00
9:23 AM,26.6,23.0,86,29.60,3.0,Calm,Calm,-,0.00,Snow,Light Snow,0,2013-03-03 14:23:00
9:32 AM,26.6,23.0,86,29.60,5.0,Calm,Calm,-,0.00,Snow,Light Snow,0,2013-03-03 14:32:00
9:52 AM,28.0,23.0,81,29.64,2.5,Calm,Calm,-,0.00,Snow,Light Snow,0,2013-03-03 14:52:00
10:05 AM,28.4,24.8,86,29.59,3.0,Calm,Calm,-,0.00,Snow,Light Snow,0,2013-03-03 15:05:00
10:14 AM,28.4,23.0,80,29.59,2.5,Calm,Calm,-,0.00,Snow,Light Snow,0,2013-03-03 15:14:00
10:23 AM,28.4,23.0,80,29.59,4.0,Calm,Calm,-,0.00,Snow,Light Snow,0,2013-03-03 15:23:00
10:52 AM,30.0,24.1,79,29.64,2.5,NE,3.5,-,0.00,Snow,Light Snow,50,2013-03-03 15:52:00
11:04 AM,30.2,24.8,80,29.58,3.0,Calm,Calm,-,0.00,Snow,Light Snow,0,2013-03-03 16:04:00
11:23 AM,30.2,24.8,80,29.58,5.0,Variable,3.5,-,0.00,Snow,Light Snow,0,2013-03-03 16:23:00
11:52 AM,30.9,25.0,79,29.63,6.0,Calm,Calm,-,0.00,Snow,Light Snow,0,2013-03-03 16:52:00
12:52 PM,33.1,25.0,72,29.60,10.0,Calm,Calm,-,0.00,,Overcast,0,2013-03-03 17:52:00
1:52 PM,32.0,25.0,75,29.60,2.0,Variable,4.6,-,0.00,Snow,Light Snow,0,2013-03-03 18:52:00
2:05 PM,32.0,26.6,80,29.55,4.0,Variable,3.5,-,0.00,Snow,Light Snow,0,2013-03-03 19:05:00
2:24 PM,33.8,24.8,70,29.55,8.0,Variable,3.5,-,0.00,Snow,Light Snow,0,2013-03-03 19:24:00
2:52 PM,33.1,25.0,72,29.60,9.0,WNW,8.1,-,0.00,Snow,Light Snow,300,2013-03-03 19:52:00
3:52 PM,33.1,24.1,70,29.60,10.0,Variable,5.8,-,0.00,,Overcast,0,2013-03-03 20:52:00
4:47 PM,32.0,24.8,75,29.56,10.0,Variable,6.9,-,N/A,,Overcast,0,2013-03-03 21:47:00
4:52 PM,32.0,24.1,73,29.61,10.0,North,8.1,-,N/A,,Overcast,360,2013-03-03 21:52:00
5:04 PM,32.0,24.8,75,29.56,10.0,NW,4.6,-,N/A,,Overcast,310,2013-03-03 22:04:00
5:52 PM,30.9,24.1,76,29.62,10.0,Variable,3.5,-,0.00,,Overcast,0,2013-03-03 22:52:00
6:52 PM,30.0,23.0,75,29.64,10.0,NNW,4.6,-,N/A,,Overcast,340,2013-03-03 23:52:00
7:48 PM,30.2,23.0,75,29.59,10.0,NW,5.8,-,N/A,,Overcast,320,2013-03-04 00:48:00
7:52 PM,30.0,23.0,75,29.64,10.0,NNW,5.8,-,N/A,,Overcast,330,2013-03-04 00:52:00
8:02 PM,30.2,23.0,75,29.59,10.0,Variable,6.9,-,N/A,,Overcast,0,2013-03-04 01:02:00
8:52 PM,30.0,21.9,72,29.65,10.0,NNW,6.9,-,N/A,,Overcast,330,2013-03-04 01:52:00
9:52 PM,28.9,21.0,72,29.65,10.0,NW,4.6,-,N/A,,Overcast,310,2013-03-04 02:52:00
10:29 PM,28.4,21.2,74,29.59,10.0,Variable,6.9,-,N/A,,Overcast,0,2013-03-04 03:29:00
10:52 PM,28.9,21.0,72,29.64,10.0,Variable,5.8,-,N/A,,Overcast,0,2013-03-04 03:52:00
11:52 PM,28.0,21.0,75,29.64,10.0,Variable,5.8,-,N/A,,Overcast,0,2013-03-04 04:52:00